Location: Unspecified
(0.0000°N, 0.0000°E)
Time: 21:27:57
(UTC+00:00)

DMSP 5D-2 F13 DEB - Visible Passes

Search period start: 06 March 2026 00:00
Search period end: 16 March 2026 00:00
Orbit: 781 x 797 km, 98.7° (Epoch: 6 March)

Date Brightness Start Highest point End Pass type
(mag) Time Alt. Az. Time Alt. Az. Time Alt. Az.
6 Mar ? 18:30:19 10° SE 18:34:41 28° ENE 18:39:03 10° NNE visible
6 Mar ? 20:10:31 10° SW 20:13:51 17° WSW 20:17:11 10° WNW visible
7 Mar ? 19:39:21 10° S 19:44:09 40° WSW 19:48:57 10° NW visible
8 Mar ? 19:09:16 10° SSE 19:14:26 87° ENE 19:19:36 10° NNW visible
9 Mar ? 18:39:58 10° SE 18:44:42 37° ENE 18:49:25 10° N visible
9 Mar ? 20:21:34 10° SW 20:23:51 13° WSW 20:26:09 10° WNW visible
10 Mar ? 19:49:40 10° SSW 19:54:08 30° WSW 19:58:38 10° NW visible
11 Mar ? 19:19:16 10° S 19:24:24 71° WSW 19:29:33 10° NNW visible
12 Mar ? 18:49:41 10° SSE 18:54:40 49° ENE 18:59:38 10° N visible
13 Mar ? 20:00:04 10° SSW 20:04:05 23° WSW 20:08:07 10° NW visible
14 Mar ? 19:29:18 10° S 19:34:20 53° WSW 19:39:22 10° NNW visible
15 Mar ? 18:59:26 10° SSE 19:04:34 65° ENE 19:09:41 10° N visible
